HYLAS 4

Last updated on Fri Nov 07 2025 00:02:51 GMT+0000 (Coordinated Universal Time)

1 43272U 18033B 25309.67075279 -.00000223 00000+0 00000+0 0 9991 2 43272 0.0192 278.1126 0001630 324.1053 10.8763 1.00267985 27829
UTC large
Height (km)
Speed (km/s)
/
Latitude / Longitude
Inclination (degrees)
Orbital Period (minutes)
Azimuth
Elevation
Range (km)
Doppler Factor

Next 0 passes for location: London (51.5072 / 0.1276)

Sorry there are no passes over London.